STARLINK-5221, 54091

Orbit data source: Space-Track

STARLINK-5221, 54091 is a payload satellite owned by SpaceX/Seattle (US) in LEO that was launched on Thu, 20 Oct 2022 UTC via an FALCON 9 launch vehicle from the Air Force Eastern Test Range (AFETR). Payload-class satellites include a variety of spacecraft equipped with specific instruments for various scientific and technological missions. These include communications satellites like Starlink; space stations such as the ISS; scientific satellites like the Hubble; Earth observation satellites from companies like Planet Labs, Umbra, and HawkEye 360; GPS; miniature CubeSats for education and research; and military/defense satellites.

Loading next visibility...
Identifier
54091, 2022-136AS
Orbit
LEO
Country
Flag of USUS
Related business
Manufacturer
SpaceX/Seattle
Mission
Operational Commercial Communications
Bus & Motor
STARLINK, Unknown motor
Mass
305 kg wet, ~290 kg dry
Launch date (UTC)
2022-10-20 (3 years ago)
Launch vehicle
FALCON 9
Launch site
Air Force Eastern Test Range (AFETR)
Object type
Payload
Rocket body
Debris
Shape & HBR
Box + 1 Pan, 10.1 m
Radar Cross Section
13.562 m², Large (>1 m²)

Expand to show TLE details & history
Last TLE update: 13 hours ago

TLE from 13 hours ago
0 STARLINK-5221
1 54091U 22136AS  25304.01703342  .00000698  00000-0  61906-4 0  9996
2 54091  53.2172 195.8434 0001344  85.4912 274.6233 15.08847360167414
Epoch: 2025-10-31T00:24Z
TLE epoch observation values (Epoch: 2025-10-31T00:24:31.687Z)
Latitude
-0.00008°
Longitude
150.1438°
Altitude
540.544 km
Speed
7.593 km/s
True Right ascension
13h 03m 22s
True Declination
0° 00' 00"
Sunlit
Object was in daylight at epoch
Visualization orbit readout
Latitude
Unknown
Longitude
Unknown
Altitude
Unknown
Speed
Unknown
Apparent Right ascension
Unknown
Apparent Declination
Unknown
Sunlit
N/A
Visualization observer readout
Local Sidereal Time
08:35:00
Azimuth
Unknown
Elevation
Unknown
Doppler factor
Unknown
Orbital elements
Apogee altitude
540.896 km
Perigee altitude
539.036 km
Semi-major axis
6,918.103 km
Eccentricity
0.00013
Inclination
53.2172°
RAAN
195.8434°
Arg. of periapsis
85.4912°
True anomaly
274.60795°
Mean anomaly
274.6233°
Eccentric anomaly
274.61562°
Mean motion
3.77192 °/min
Orbital period
95.44 mins
BSTAR
0.000061906
Loading maneuver chart data...
Computing Atmospheric mass density...
Loading historical data...
Loading historical data...
Loading historical data...
Loading historical data...
Loading historical data...
Loading historical data...
Loading historical data...

Documentation

Showing up to 5 results
|